Regional Weather Roundup
Issued by NWS

Home | Current Version | Previous Version | Graphics & Text | Print | Product List | Glossary On
Versions: 1 2 3 4 5 6 7 8 9 10 11 12 13 14 15 16 17 18 19 20 21 22 23 24 25 26 27 28 29 30 31 32 33 34 35 36 37 38 39 40 41 42 43 44 45 46 47 48 49 50
000
ASUS43 KTOP 220359
RWRKS

WEATHER ROUNDUP FOR KANSAS
NATIONAL WEATHER SERVICE GOODLAND KS
1100 PM CDT SAT OCT 21 2017

NOTE:  "FAIR" INDICATES FEW OR NO CLOUDS BELOW 12,000 FEET WITH NO
SIGNIFICANT WEATHER AND/OR OBSTRUCTIONS TO VISIBILITY.

KSZ001>006-013>018-027>032-041>047-220500-
NORTHWEST KANSAS

CITY           SKY/WX    TMP DP  RH WIND       PRES   REMARKS
GOODLAND       CLEAR     40  17  39 NW9       30.09R
HAYS           PTCLDY    44  37  76 W5        30.06R
HILL CITY      CLOUDY    39  35  86 W5        30.05R
RUSSELL        CLOUDY    50  41  71 N6        30.02R
$$

KSZ061>065-074>080-084>089-220500-
SOUTHWEST KANSAS

CITY           SKY/WX    TMP DP  RH WIND       PRES   REMARKS
DODGE CITY     CLOUDY    41  32  70 N3        30.05R
ELKHART          N/A     46  21  37 NW5         N/A
GARDEN CITY    CLEAR     42  25  50 NW13      30.05R
GREAT BEND     CLOUDY    49  40  71 N8        30.02S
LIBERAL        CLEAR     41  30  65 CALM      30.08R
$$

KSZ066>073-081>083-090>101-220500-
SOUTHEAST KANSAS

CITY           SKY/WX    TMP DP  RH WIND       PRES   REMARKS
CHANUTE        RAIN      57  55  93 N16G22    29.92F
COFFEYVILLE    RAIN      58  57  97 N13       29.93R
HUTCHINSON     CLOUDY    57  40  52 N9G18     30.00R
MEDICINE LODGE   N/A     57  37  47 N16       30.01R
NEWTON         CLOUDY    54  43  66 N13       30.00R
PARSONS        TSTM      58  56  93 N9        29.94F
WICHITA INTL   CLOUDY    57  47  69 N12       30.01R
WICHITA JABRA  LGT RAIN  54  51  90 N9        30.01R
WICHITA MCCONL CLOUDY    54  49  85 NE7       30.01R
WINFIELD       LGT RAIN  54  52  93 N15       30.00R
$$

KSZ007>012-019>026-033>040-048>060-102>105-220500-
NORTHEAST KANSAS

CITY           SKY/WX    TMP DP  RH WIND       PRES   REMARKS
CONCORDIA      MOCLDY    50  41  71 N5        30.02R
EMPORIA        LGT RAIN  52  49  89 NW9       29.99R
LAWRENCE       RAIN      54  53  97 NW13      29.97R FOG
MANHATTAN      CLOUDY    57  42  57 N7        29.99S
OLATHE IND     TSTM      55  53  93 N15       29.98R FOG
OLATHE EXE     RAIN      54  54 100 NW10      29.96R
SALINA         CLOUDY    57  41  55 N12       30.02R
TOPEKA BILLARD RAIN      53  52  96 NW6       29.99R
TOPEKA FORBES  TSTM      54  51  90 N12       29.98F
$$




USA.gov is the U.S. government's official web portal to all federal, state and local government web resources and services.